Weather History for San Antonio Stinson, TX

Change the Weather History Date:

Sunday, November 3, 2013

  Actual Average Record
Temperature  
Mean Temperature 60 °F -  
Max Temperature 75 °F 72 °F 84 °F (2012)
Min Temperature 46 °F 53 °F 36 °F (1999)
Degree Days  
Heating Degree Days 4    
Growing Degree Days 10 (Base 50)    
Moisture  
Dew Point 41 °F    
Average Humidity 51    
Maximum Humidity 80    
Minimum Humidity 22    
Precipitation  
Precipitation 0.00 in - - ()
Sea Level Pressure  
Sea Level Pressure 30.11 in    
Wind  
Wind Speed 3 mph (ESE)    
Max Wind Speed 15 mph    
Max Gust Speed -    
Visibility 10 miles    
Events      
Averages and records for this station are not official NWS values.
T = Trace of Precipitation, MM = Missing Value Source: NWS Daily Summary

Daily Weather History Graph

Daily Weather History Graph

Search for Another Location

Airport:

Trip Planner

Search our weather history database for the weather conditions in past years. The results will help you decide how hot, cold, wet, or windy it might be!

Date:

Astronomy

Nov. 03, 2013 Rise Set
Actual Time 6:48 AM CST 5:45 PM CST
Civil Twilight 6:23 AM CST 6:10 PM CST
Nautical Twilight 5:55 AM CST 6:38 PM CST
Astronomical Twilight 5:27 AM CST 7:06 PM CST
Moon 6:52 AM CST (11/3) 6:04 PM CST (11/3)
Length of Visible Light 11h 46m
Length of Day
10h 57m
New Moon, 0% of the Moon is Illuminated
Nov 3
New Moon
Nov 9
First Quarter
Nov 17
Full
Nov 25
Last Quarter
Dec 2
New

Hourly Weather History & Observations

Time (CST) Temp. Dew Point Humidity Pressure Visibility Wind Dir Wind Speed Gust Speed Precip Events Conditions
12:53 AM 51.1 °F 42.1 °F 71% 30.21 in 10.0 mi Calm Calm - N/A   Clear
1:53 AM 50.0 °F 42.1 °F 74% 30.19 in 9.0 mi Calm Calm - N/A   Clear
1:53 AM 48.9 °F 42.1 °F 77% 30.18 in 10.0 mi Calm Calm - N/A   Clear
2:53 AM 48.9 °F 42.1 °F 77% 30.17 in 10.0 mi Calm Calm - N/A   Clear
3:53 AM 48.0 °F 42.1 °F 80% 30.16 in 10.0 mi NNE 4.6 mph - N/A   Clear
4:53 AM 48.9 °F 41.0 °F 74% 30.16 in 10.0 mi Calm Calm - N/A   Clear
5:53 AM 46.9 °F 41.0 °F 80% 30.16 in 10.0 mi Calm Calm - N/A   Clear
6:53 AM 48.0 °F 39.9 °F 74% 30.16 in 10.0 mi ENE 3.5 mph - N/A   Clear
7:53 AM 54.0 °F 39.9 °F 59% 30.17 in 10.0 mi East 5.8 mph - N/A   Clear
8:53 AM 60.1 °F 42.1 °F 51% 30.18 in 10.0 mi ESE 5.8 mph - N/A   Clear
9:53 AM 66.0 °F 35.1 °F 32% 30.17 in 10.0 mi ESE 15.0 mph - N/A   Clear
10:53 AM 68.0 °F 33.1 °F 27% 30.16 in 10.0 mi ESE 12.7 mph - N/A   Clear
11:53 AM 71.1 °F 34.0 °F 26% 30.13 in 10.0 mi ESE 8.1 mph - N/A   Clear
12:53 PM 72.0 °F 30.9 °F 22% 30.08 in 10.0 mi East 9.2 mph - N/A   Clear
1:53 PM 73.0 °F 32.0 °F 22% 30.04 in 10.0 mi SE 4.6 mph - N/A   Clear
2:53 PM 75.0 °F 34.0 °F 22% 30.02 in 10.0 mi SE 11.5 mph - N/A   Clear
3:53 PM 75.9 °F 37.0 °F 24% 30.01 in 10.0 mi SE 9.2 mph - N/A   Clear
4:53 PM 73.0 °F 39.0 °F 29% 30.01 in 10.0 mi ESE 8.1 mph - N/A   Clear
5:53 PM 70.0 °F 41.0 °F 35% 30.03 in 10.0 mi Calm Calm - N/A   Clear
6:53 PM 64.9 °F 44.1 °F 47% 30.04 in 10.0 mi Calm Calm - N/A   Clear
7:53 PM 64.0 °F 46.0 °F 52% 30.06 in 10.0 mi Calm Calm - N/A   Mostly Cloudy
8:53 PM 66.0 °F 50.0 °F 56% 30.05 in 10.0 mi ESE 3.5 mph - N/A   Mostly Cloudy
9:53 PM 66.0 °F 51.1 °F 59% 30.04 in 10.0 mi SE 8.1 mph - N/A   Overcast
10:53 PM 64.9 °F 52.0 °F 63% 30.02 in 10.0 mi SE 10.4 mph - N/A   Overcast